Tracking 19192 objects as of 20-Jun-2018
HD Live streaming from Space Station
objects crossing your sky now

DEMETER

Track DEMETER now!
10-day predictions
DEMETER is classified as:


NORAD ID: 28368
Int'l Code: 2004-025C
Perigee: 652.8 km
Apogee: 655.8 km
Inclination: 97.7 °
Period: 97.7 minutes
Semi major axis: 7025 km
RCS: 0.9257 m2 (medium)
Launch date: June 29, 2004
Source: France (FR)
Launch site: TYURATAM MISSILE AND SPACE COMPLEX (TTMTR)

Study of ionosperic perturbations in relation with seismic activity; global study of the Earth electromagnetic environment.
aabbcc
Your satellite tracking list
Your tracking list is empty




NASA's NSSDC Master Catalog

Two Line Element Set (TLE):
1 28368U 04025C   18170.91934576 +.00000109 +00000-0 +23640-4 0  9998
2 28368 097.7428 158.1268 0002091 111.3690 248.7742 14.74372682749783
Source of the keplerian elements: AFSPC